User: anonymous   Login
Location: Dayton
(39.7590°N, 84.1920°W)
Time: 15:41:25
(UTC-04:00)
Language:

Cosmos 1939 Rocket - Orbit

View from above orbital plane
View from above orbital plane
View from above satellite
View from above satellite

Ground track
Ground track

The orbit data is extracted from the following two-line orbital elements,

1 19046U 88032B   18108.91625424 +.00000258 +00000-0 +23732-4 0  9998
2 19046 097.4888 151.2607 0037137 017.7448 342.5065 15.02418456618253
Epoch (UTC): 18 April 2018 21:59:24
Eccentricity: 0.0037137
inclination: 97.4888°
perigee height: 533 km
apogee height: 585 km
right ascension of ascending node: 151.2607°
argument of perigee: 17.7448°
revolutions per day: 15.02418456
mean anomaly at epoch: 342.5065°
orbit number at epoch: 61825

The dashed part of the orbit path shows where the satellite is in the earth's shadow,  

DLR